Belgrade, MT

12:58 PM MST on February 08, 2016 (GMT -0700)
Gallatin

Weather History for KBZN - April, 2014

Change the Weather History Date:

Thursday, April 3, 2014

  Actual Average Record
Temperature  
Mean Temperature 35 °F 42 °F  
Max Temperature 50 °F 56 °F 75 °F (1992)
Min Temperature 20 °F 28 °F -5 °F (1970)
Degree Days  
Heating Degree Days 30 23  
Month to date heating degree days 89 70  
Since 1 July heating degree days 7075 6534  
Cooling Degree Days 0 0  
Month to date cooling degree days 0 0  
Year to date cooling degree days 0 0  
Moisture  
Dew Point 20 °F    
Average Humidity 60    
Maximum Humidity 96    
Minimum Humidity 24    
Precipitation  
Precipitation 0.00 in 0.04 in 0.67 in (1983)
Month to date precipitation T 0.13  
Year to date precipitation 2.44 1.98  
Snow  
Snow 0.00 in 0.30 in 6.70 in (1983)
Month to date snowfall T 0.9  
Since 1 July snowfall 29.5 30.9  
Snow Depth 0.00 in    
Sea Level Pressure  
Sea Level Pressure 30.05 in    
Wind  
Wind Speed 6 mph (SSE)    
Max Wind Speed 14 mph    
Max Gust Speed 19 mph    
Visibility 10 miles    
Events      
T = Trace of Precipitation, MM = Missing Value Source: NWS Daily Summary

Daily Weather History Graph

Daily Weather History Graph

Search for Another Location

Airport or City:

Trip Planner

Search our weather history database for the weather conditions in past years. The results will help you decide how hot, cold, wet, or windy it might be!

Date:

Astronomy

Apr. 03, 2014 Rise Set
Actual Time 7:00 AM MDT 7:55 PM MDT
Civil Twilight 6:30 AM MDT 8:26 PM MDT
Nautical Twilight 5:54 AM MDT 9:02 PM MDT
Astronomical Twilight 5:16 AM MDT 9:40 PM MDT
Moon 9:22 AM MDT (4/3) No Moon Set
Length of Visible Light 13h 55m
Length of Day
12h 54m
Waxing Crescent, 18% of the Moon is Illuminated
Apr 3
Waxing Crescent
Apr 7
First Quarter
Apr 15
Full
Apr 22
Last Quarter
Apr 29
New

Hourly Weather History & Observations

Time (MDT) Temp. Windchill Dew Point Humidity Pressure Visibility Wind Dir Wind Speed Gust Speed Precip Events Conditions
12:56 AM 27.0 °F - 25.0 °F 92% 30.02 in 10.0 mi Calm Calm - N/A   Clear
1:56 AM 23.0 °F 15.8 °F 21.0 °F 92% 30.04 in 10.0 mi SE 5.8 mph - N/A   Partly Cloudy
2:56 AM 23.0 °F 15.8 °F 21.0 °F 92% 30.04 in 9.0 mi ESE 5.8 mph - N/A   Partly Cloudy
3:56 AM 27.0 °F 23.0 °F 23.0 °F 85% 30.03 in 10.0 mi SSE 3.5 mph - N/A   Overcast
4:56 AM 27.0 °F 18.7 °F 23.0 °F 85% 30.02 in 10.0 mi SSE 8.1 mph - N/A   Clear
5:56 AM 23.0 °F 17.0 °F 19.9 °F 88% 30.06 in 10.0 mi South 4.6 mph - N/A   Clear
6:56 AM 19.9 °F 13.4 °F 17.1 °F 89% 30.11 in 10.0 mi SE 4.6 mph - N/A   Clear
7:56 AM 28.0 °F 24.2 °F 24.1 °F 85% 30.11 in 10.0 mi South 3.5 mph - N/A   Clear
8:56 AM 33.1 °F - 27.0 °F 78% 30.12 in 10.0 mi Calm Calm - N/A   Clear
9:56 AM 37.0 °F 34.5 °F 26.1 °F 65% 30.10 in 10.0 mi South 3.5 mph - N/A   Clear
10:56 AM 39.9 °F - 25.0 °F 55% 30.11 in 10.0 mi Calm Calm - N/A   Clear
11:56 AM 42.1 °F 39.2 °F 23.0 °F 47% 30.10 in 10.0 mi Variable 4.6 mph - N/A   Clear
12:56 PM 44.1 °F 41.5 °F 21.9 °F 42% 30.09 in 10.0 mi NW 4.6 mph - N/A   Overcast
1:56 PM 46.9 °F - 19.0 °F 33% 30.09 in 10.0 mi North 3.5 mph - N/A   Partly Cloudy
2:56 PM 46.0 °F 44.8 °F 19.0 °F 34% 30.06 in 10.0 mi Variable 3.5 mph - N/A   Overcast
3:56 PM 48.9 °F - 17.1 °F 28% 30.03 in 10.0 mi SW 8.1 mph - N/A   Scattered Clouds
4:56 PM 50.0 °F - 15.1 °F 25% 30.01 in 10.0 mi North - - N/A   Clear
4:58 PM 48.9 °F - 14.0 °F 25% 29.97 in 10.0 mi South 11.5 mph - N/A   Clear
5:37 PM 48.9 °F - 16.0 °F 27% 29.97 in 10.0 mi SSW 6.9 mph - N/A   Mostly Cloudy
5:56 PM 48.0 °F - 15.1 °F 27% 30.02 in 10.0 mi Variable 4.6 mph - N/A   Mostly Cloudy
6:56 PM 46.9 °F - 18.0 °F 32% 30.03 in 10.0 mi SE 5.8 mph - N/A   Clear
7:56 PM 43.0 °F 38.2 °F 19.0 °F 38% 30.01 in 10.0 mi South 8.1 mph - N/A   Clear
9:56 PM 35.6 °F 27.5 °F 21.2 °F 56% 29.96 in 10.0 mi SE 11.5 mph - N/A   Clear
10:56 PM 35.1 °F 29.3 °F 19.9 °F 54% 30.01 in 10.0 mi SSE 6.9 mph - N/A   Clear
11:56 PM 28.0 °F 18.1 °F 19.9 °F 72% 30.03 in 10.0 mi SE 11.5 mph - N/A   Clear